Time,TemperatureF,DewpointF,PressureIn,WindDirection,WindDirectionDegrees,WindSpeedMPH,WindSpeedGustMPH,Humidity,HourlyPrecipIn,Conditions,Clouds,dailyrainin,SoftwareType,DateUTC
2013-05-19 00:00:00,54.7,53.0,30.36,WSW,247,2.3,6.5,94,0.00,,,0.00,Rainwise IP-100,2013-05-19 04:00:00,
2013-05-19 00:01:00,54.7,53.0,30.36,WSW,247,3.3,6.5,94,0.00,,,0.00,Rainwise IP-100,2013-05-19 04:01:00,
2013-05-19 00:06:00,54.6,53.0,30.36,WSW,247,2.1,6.5,94,0.00,,,0.00,Rainwise IP-100,2013-05-19 04:06:00,
2013-05-19 00:11:00,54.5,53.5,30.36,WNW,292,3.0,5.8,95,0.00,,,0.00,Rainwise IP-100,2013-05-19 04:11:00,
2013-05-19 00:16:00,54.5,53.5,30.36,West,270,3.0,6.5,95,0.00,,,0.00,Rainwise IP-100,2013-05-19 04:16:00,
2013-05-19 00:21:00,54.4,53.5,30.36,WSW,247,2.8,10.7,95,0.00,,,0.00,Rainwise IP-100,2013-05-19 04:21:00,
2013-05-19 00:26:00,54.4,53.0,30.36,WNW,292,3.5,6.3,94,0.00,,,0.00,Rainwise IP-100,2013-05-19 04:26:00,
2013-05-19 00:31:00,54.5,53.0,30.36,WNW,292,2.8,6.8,94,0.00,,,0.00,Rainwise IP-100,2013-05-19 04:31:00,
2013-05-19 00:36:00,54.5,53.0,30.35,NNW,337,3.5,6.3,93,0.00,,,0.00,Rainwise IP-100,2013-05-19 04:36:00,
2013-05-19 00:41:00,54.5,53.0,30.36,NW,315,0.0,7.2,93,0.00,,,0.00,Rainwise IP-100,2013-05-19 04:41:00,
2013-05-19 00:46:00,54.5,53.0,30.36,WNW,292,5.1,9.6,92,0.00,,,0.00,Rainwise IP-100,2013-05-19 04:46:00,
2013-05-19 00:51:00,54.5,53.0,30.36,WNW,292,4.2,8.2,92,0.00,,,0.00,Rainwise IP-100,2013-05-19 04:51:00,
2013-05-19 00:56:00,54.5,53.0,30.35,West,270,1.2,8.2,92,0.00,,,0.00,Rainwise IP-100,2013-05-19 04:56:00,
2013-05-19 01:01:00,54.5,52.0,30.36,West,270,3.0,8.9,91,0.00,,,0.00,Rainwise IP-100,2013-05-19 05:01:00,
2013-05-19 01:06:00,54.5,52.0,30.35,WNW,292,1.4,5.6,91,0.00,,,0.00,Rainwise IP-100,2013-05-19 05:06:00,
2013-05-19 01:11:00,54.4,53.0,30.35,WNW,292,4.9,6.1,92,0.00,,,0.00,Rainwise IP-100,2013-05-19 05:11:00,
2013-05-19 01:16:00,54.3,53.0,30.35,WNW,292,4.0,6.5,92,0.00,,,0.00,Rainwise IP-100,2013-05-19 05:16:00,
2013-05-19 01:21:00,54.2,52.0,30.35,WNW,292,3.5,7.9,92,0.00,,,0.00,Rainwise IP-100,2013-05-19 05:21:00,
2013-05-19 01:26:00,54.2,52.0,30.36,West,270,3.5,6.1,92,0.00,,,0.00,Rainwise IP-100,2013-05-19 05:26:00,
2013-05-19 01:31:00,54.1,52.0,30.36,WNW,292,2.3,6.3,93,0.00,,,0.00,Rainwise IP-100,2013-05-19 05:31:00,
2013-05-19 01:36:00,54.1,52.0,30.36,WNW,292,3.5,6.1,93,0.00,,,0.00,Rainwise IP-100,2013-05-19 05:36:00,
2013-05-19 01:41:00,54.0,52.0,30.36,WNW,292,2.3,5.4,93,0.00,,,0.00,Rainwise IP-100,2013-05-19 05:41:00,
2013-05-19 01:46:00,53.9,52.0,30.36,WNW,292,2.1,8.6,93,0.00,,,0.00,Rainwise IP-100,2013-05-19 05:46:00,
2013-05-19 01:51:00,53.8,52.0,30.35,WNW,292,5.4,5.8,93,0.00,,,0.00,Rainwise IP-100,2013-05-19 05:51:00,
2013-05-19 01:56:00,53.7,51.0,30.36,WNW,292,2.1,6.8,93,0.00,,,0.00,Rainwise IP-100,2013-05-19 05:56:00,
2013-05-19 02:01:00,53.6,51.0,30.36,WSW,247,2.1,4.9,93,0.00,,,0.00,Rainwise IP-100,2013-05-19 06:01:00,
2013-05-19 02:06:00,53.6,51.0,30.35,West,270,3.0,4.7,93,0.00,,,0.00,Rainwise IP-100,2013-05-19 06:06:00,
2013-05-19 02:11:00,53.5,51.0,30.36,WNW,292,2.3,4.2,93,0.00,,,0.00,Rainwise IP-100,2013-05-19 06:11:00,
2013-05-19 02:16:00,53.4,51.0,30.36,WSW,247,1.6,4.2,93,0.00,,,0.00,Rainwise IP-100,2013-05-19 06:16:00,
2013-05-19 02:21:00,53.2,50.5,30.36,WSW,247,1.9,3.0,93,0.00,,,0.00,Rainwise IP-100,2013-05-19 06:21:00,
2013-05-19 02:26:00,53.1,50.5,30.36,West,270,0.0,2.6,93,0.00,,,0.00,Rainwise IP-100,2013-05-19 06:26:00,
2013-05-19 02:31:00,52.9,50.5,30.36,West,270,1.9,2.3,93,0.00,,,0.00,Rainwise IP-100,2013-05-19 06:31:00,
2013-05-19 02:36:00,52.8,50.5,30.36,West,270,0.0,2.8,93,0.00,,,0.00,Rainwise IP-100,2013-05-19 06:36:00,
2013-05-19 02:41:00,52.7,50.5,30.36,WSW,247,2.3,3.3,93,0.00,,,0.00,Rainwise IP-100,2013-05-19 06:41:00,
2013-05-19 02:46:00,52.5,50.5,30.36,WSW,247,0.0,3.0,93,0.00,,,0.00,Rainwise IP-100,2013-05-19 06:46:00,
2013-05-19 02:51:00,52.3,50.0,30.36,SSW,202,1.4,3.3,93,0.00,,,0.00,Rainwise IP-100,2013-05-19 06:51:00,
2013-05-19 02:56:00,52.2,50.0,30.36,SW,225,0.0,3.5,93,0.00,,,0.00,Rainwise IP-100,2013-05-19 06:56:00,
2013-05-19 03:01:00,52.3,50.5,30.36,WSW,247,0.0,4.2,94,0.00,,,0.00,Rainwise IP-100,2013-05-19 07:01:00,
2013-05-19 03:06:00,52.3,50.5,30.36,SW,225,0.0,4.0,94,0.00,,,0.00,Rainwise IP-100,2013-05-19 07:06:00,
2013-05-19 03:11:00,52.3,50.5,30.36,WSW,247,2.8,4.7,94,0.00,,,0.00,Rainwise IP-100,2013-05-19 07:11:00,
2013-05-19 03:16:00,52.3,50.5,30.36,WSW,247,0.0,4.4,94,0.00,,,0.00,Rainwise IP-100,2013-05-19 07:16:00,
2013-05-19 03:21:00,52.2,50.5,30.36,WSW,247,1.4,2.6,95,0.00,,,0.00,Rainwise IP-100,2013-05-19 07:21:00,
2013-05-19 03:26:00,52.2,50.5,30.36,WSW,247,0.0,2.8,95,0.00,,,0.00,Rainwise IP-100,2013-05-19 07:26:00,
2013-05-19 03:31:00,52.1,50.5,30.36,WSW,247,0.0,3.0,95,0.00,,,0.00,Rainwise IP-100,2013-05-19 07:31:00,
2013-05-19 03:36:00,51.9,50.5,30.36,SW,225,2.3,2.8,95,0.00,,,0.00,Rainwise IP-100,2013-05-19 07:36:00,
2013-05-19 03:41:00,51.9,50.5,30.37,SW,225,0.0,2.3,95,0.00,,,0.00,Rainwise IP-100,2013-05-19 07:41:00,
2013-05-19 03:46:00,51.8,50.5,30.36,WSW,247,1.9,2.6,95,0.00,,,0.00,Rainwise IP-100,2013-05-19 07:46:00,
2013-05-19 03:51:00,51.7,50.5,30.36,WSW,247,0.0,2.1,96,0.00,,,0.00,Rainwise IP-100,2013-05-19 07:51:00,
2013-05-19 03:56:00,51.6,50.5,30.36,WSW,247,1.6,2.1,96,0.00,,,0.00,Rainwise IP-100,2013-05-19 07:56:00,
2013-05-19 04:01:00,51.6,50.5,30.36,WSW,247,1.4,2.6,96,0.00,,,0.00,Rainwise IP-100,2013-05-19 08:01:00,
2013-05-19 04:06:00,51.6,50.5,30.36,SSW,202,0.0,4.0,96,0.00,,,0.00,Rainwise IP-100,2013-05-19 08:06:00,
2013-05-19 04:11:00,51.6,50.5,30.36,WSW,247,2.8,4.9,96,0.00,,,0.00,Rainwise IP-100,2013-05-19 08:11:00,
2013-05-19 04:16:00,51.5,50.5,30.36,WSW,247,0.0,4.0,96,0.00,,,0.00,Rainwise IP-100,2013-05-19 08:16:00,
2013-05-19 04:21:00,51.4,50.0,30.36,WSW,247,0.0,3.3,96,0.00,,,0.00,Rainwise IP-100,2013-05-19 08:21:00,
2013-05-19 04:26:00,51.2,50.0,30.36,WSW,247,0.0,2.6,95,0.00,,,0.00,Rainwise IP-100,2013-05-19 08:26:00,
2013-05-19 04:31:00,51.0,50.0,30.36,WSW,247,1.4,1.9,95,0.00,,,0.00,Rainwise IP-100,2013-05-19 08:31:00,
2013-05-19 04:36:00,50.8,50.0,30.37,WSW,247,0.0,2.1,95,0.00,,,0.00,Rainwise IP-100,2013-05-19 08:36:00,
2013-05-19 04:41:00,50.6,50.0,30.37,WSW,247,0.0,2.1,96,0.00,,,0.00,Rainwise IP-100,2013-05-19 08:41:00,
2013-05-19 04:46:00,50.4,50.0,30.36,WSW,247,0.0,1.9,96,0.00,,,0.00,Rainwise IP-100,2013-05-19 08:46:00,
2013-05-19 04:51:00,50.3,50.0,30.36,SSW,202,1.4,2.3,96,0.00,,,0.00,Rainwise IP-100,2013-05-19 08:51:00,
2013-05-19 04:56:00,50.4,50.0,30.37,SSW,202,0.0,4.7,96,0.00,,,0.00,Rainwise IP-100,2013-05-19 08:56:00,
2013-05-19 05:01:00,50.5,50.0,30.38,WSW,247,0.0,3.0,96,0.00,,,0.00,Rainwise IP-100,2013-05-19 09:01:00,
2013-05-19 05:06:00,50.5,50.0,30.37,WSW,247,0.0,2.8,96,0.00,,,0.00,Rainwise IP-100,2013-05-19 09:06:00,
2013-05-19 05:11:00,50.5,50.0,30.37,SSW,202,1.4,2.6,96,0.00,,,0.00,Rainwise IP-100,2013-05-19 09:11:00,
2013-05-19 05:16:00,50.5,50.0,30.37,WSW,247,0.0,3.5,96,0.00,,,0.00,Rainwise IP-100,2013-05-19 09:16:00,
2013-05-19 05:21:00,50.6,50.0,30.38,SW,225,0.0,4.9,96,0.00,,,0.00,Rainwise IP-100,2013-05-19 09:21:00,
2013-05-19 05:26:00,50.4,50.0,30.38,South,180,1.2,3.0,96,0.00,,,0.00,Rainwise IP-100,2013-05-19 09:26:00,
2013-05-19 05:31:00,50.4,50.0,30.38,WSW,247,1.4,2.6,96,0.00,,,0.00,Rainwise IP-100,2013-05-19 09:31:00,
2013-05-19 05:36:00,50.6,50.0,30.38,SW,225,1.4,2.3,96,0.00,,,0.00,Rainwise IP-100,2013-05-19 09:36:00,
2013-05-19 05:41:00,50.8,50.0,30.38,SW,225,0.0,2.8,96,0.00,,,0.00,Rainwise IP-100,2013-05-19 09:41:00,
2013-05-19 05:46:00,50.8,50.0,30.38,SW,225,1.2,3.7,96,0.00,,,0.00,Rainwise IP-100,2013-05-19 09:46:00,
2013-05-19 05:51:00,50.9,50.0,30.39,SW,225,0.0,2.6,96,0.00,,,0.00,Rainwise IP-100,2013-05-19 09:51:00,
2013-05-19 05:56:00,51.0,50.0,30.38,WSW,247,0.0,3.3,96,0.00,,,0.00,Rainwise IP-100,2013-05-19 09:56:00,
2013-05-19 06:01:00,50.9,50.0,30.38,WSW,247,0.0,1.9,96,0.00,,,0.00,Rainwise IP-100,2013-05-19 10:01:00,
2013-05-19 06:06:00,50.7,50.0,30.39,WSW,247,0.0,1.2,96,0.00,,,0.00,Rainwise IP-100,2013-05-19 10:06:00,
2013-05-19 06:11:00,50.6,50.0,30.38,WSW,247,0.0,0.0,96,0.00,,,0.00,Rainwise IP-100,2013-05-19 10:11:00,
2013-05-19 06:16:00,50.8,50.0,30.39,WSW,247,0.0,0.0,96,0.00,,,0.00,Rainwise IP-100,2013-05-19 10:16:00,
2013-05-19 06:21:00,51.0,50.0,30.39,WSW,247,0.0,0.0,96,0.00,,,0.00,Rainwise IP-100,2013-05-19 10:21:00,
2013-05-19 06:26:00,51.1,50.0,30.39,WSW,247,0.0,0.0,96,0.00,,,0.00,Rainwise IP-100,2013-05-19 10:26:00,
2013-05-19 06:31:00,51.3,50.0,30.39,WSW,247,0.0,0.0,96,0.00,,,0.00,Rainwise IP-100,2013-05-19 10:31:00,
2013-05-19 06:36:00,51.7,50.5,30.39,WSW,247,0.0,0.0,96,0.00,,,0.00,Rainwise IP-100,2013-05-19 10:36:00,
2013-05-19 06:41:00,52.3,50.5,30.39,WSW,247,0.0,2.1,96,0.00,,,0.00,Rainwise IP-100,2013-05-19 10:41:00,
2013-05-19 06:46:00,52.9,51.0,30.39,SW,225,0.0,2.1,96,0.00,,,0.00,Rainwise IP-100,2013-05-19 10:46:00,
2013-05-19 06:51:00,53.5,52.0,30.39,SSW,202,1.2,3.5,95,0.00,,,0.00,Rainwise IP-100,2013-05-19 10:51:00,
2013-05-19 06:56:00,54.1,53.0,30.40,SSW,202,1.4,2.6,95,0.00,,,0.00,Rainwise IP-100,2013-05-19 10:56:00,
2013-05-19 07:01:00,54.8,53.5,30.40,West,270,0.0,4.9,93,0.00,,,0.00,Rainwise IP-100,2013-05-19 11:01:00,
2013-05-19 07:06:00,55.5,53.5,30.40,SSW,202,0.0,5.6,90,0.00,,,0.00,Rainwise IP-100,2013-05-19 11:06:00,
2013-05-19 07:11:00,56.0,53.0,30.40,WSW,247,3.3,4.7,88,0.00,,,0.00,Rainwise IP-100,2013-05-19 11:11:00,
2013-05-19 07:16:00,56.5,53.0,30.40,WSW,247,2.1,5.8,86,0.00,,,0.00,Rainwise IP-100,2013-05-19 11:16:00,
2013-05-19 07:21:00,56.9,52.0,30.40,WNW,292,1.4,3.7,84,0.00,,,0.00,Rainwise IP-100,2013-05-19 11:21:00,
2013-05-19 07:26:00,57.1,52.0,30.40,WNW,292,2.8,4.7,82,0.00,,,0.00,Rainwise IP-100,2013-05-19 11:26:00,
2013-05-19 07:31:00,57.3,52.0,30.40,WNW,292,2.3,5.8,81,0.00,,,0.00,Rainwise IP-100,2013-05-19 11:31:00,
2013-05-19 07:36:00,57.6,51.0,30.40,WNW,292,4.4,5.8,79,0.00,,,0.00,Rainwise IP-100,2013-05-19 11:36:00,
2013-05-19 07:41:00,57.8,51.0,30.40,West,270,2.3,7.0,77,0.00,,,0.00,Rainwise IP-100,2013-05-19 11:41:00,
2013-05-19 07:46:00,57.9,50.5,30.40,WNW,292,4.0,6.1,76,0.00,,,0.00,Rainwise IP-100,2013-05-19 11:46:00,
2013-05-19 07:51:00,58.1,50.5,30.40,West,270,2.8,7.0,75,0.00,,,0.00,Rainwise IP-100,2013-05-19 11:51:00,
2013-05-19 07:56:00,58.4,50.0,30.40,West,270,5.6,7.2,73,0.00,,,0.00,Rainwise IP-100,2013-05-19 11:56:00,
2013-05-19 08:01:00,58.8,50.0,30.40,WSW,247,4.2,6.8,72,0.00,,,0.00,Rainwise IP-100,2013-05-19 12:01:00,
2013-05-19 08:06:00,59.1,50.0,30.40,WNW,292,1.9,6.1,71,0.00,,,0.00,Rainwise IP-100,2013-05-19 12:06:00,
2013-05-19 08:11:00,59.3,50.0,30.40,SSW,202,4.9,8.6,70,0.00,,,0.00,Rainwise IP-100,2013-05-19 12:11:00,
2013-05-19 08:16:00,59.4,49.0,30.40,WSW,247,1.6,7.7,69,0.00,,,0.00,Rainwise IP-100,2013-05-19 12:16:00,
2013-05-19 08:21:00,59.6,49.0,30.40,WNW,292,7.0,7.7,69,0.00,,,0.00,Rainwise IP-100,2013-05-19 12:21:00,
2013-05-19 08:26:00,59.7,49.0,30.41,WSW,247,1.4,11.0,69,0.00,,,0.00,Rainwise IP-100,2013-05-19 12:26:00,
2013-05-19 08:31:00,59.8,49.0,30.40,West,270,7.7,9.1,68,0.00,,,0.00,Rainwise IP-100,2013-05-19 12:31:00,
2013-05-19 08:36:00,60.0,49.0,30.41,WSW,247,3.7,8.2,67,0.00,,,0.00,Rainwise IP-100,2013-05-19 12:36:00,
2013-05-19 08:41:00,60.3,49.0,30.41,WSW,247,4.0,9.6,66,0.00,,,0.00,Rainwise IP-100,2013-05-19 12:41:00,
2013-05-19 08:46:00,60.3,48.0,30.41,West,270,5.4,9.1,65,0.00,,,0.00,Rainwise IP-100,2013-05-19 12:46:00,
2013-05-19 08:51:00,60.3,48.0,30.40,WNW,292,4.4,9.6,65,0.00,,,0.00,Rainwise IP-100,2013-05-19 12:51:00,
2013-05-19 08:56:00,60.4,48.0,30.41,WNW,292,6.8,10.5,65,0.00,,,0.00,Rainwise IP-100,2013-05-19 12:56:00,
2013-05-19 09:01:00,60.5,48.0,30.40,WNW,292,6.1,8.4,65,0.00,,,0.00,Rainwise IP-100,2013-05-19 13:01:00,
2013-05-19 09:06:00,60.8,49.0,30.41,WNW,292,1.6,9.3,65,0.00,,,0.00,Rainwise IP-100,2013-05-19 13:06:00,
2013-05-19 09:11:00,61.1,49.0,30.41,WSW,247,1.9,7.0,64,0.00,,,0.00,Rainwise IP-100,2013-05-19 13:11:00,
2013-05-19 09:15:00,61.5,49.0,30.41,WNW,292,7.5,9.1,63,0.00,,,0.00,Rainwise IP-100,2013-05-19 13:15:00,
2013-05-19 09:16:00,61.5,49.0,30.41,West,270,4.9,11.7,63,0.00,,,0.00,Rainwise IP-100,2013-05-19 13:16:00,
2013-05-19 09:21:00,61.7,48.0,30.41,North,360,4.4,8.2,62,0.00,,,0.00,Rainwise IP-100,2013-05-19 13:21:00,
2013-05-19 09:26:00,61.8,48.0,30.40,WNW,292,6.1,11.9,60,0.00,,,0.00,Rainwise IP-100,2013-05-19 13:26:00,
2013-05-19 09:31:00,61.8,47.5,30.41,NNW,337,1.9,12.1,59,0.00,,,0.00,Rainwise IP-100,2013-05-19 13:31:00,
2013-05-19 09:36:00,62.1,47.0,30.41,WNW,292,0.0,9.3,58,0.00,,,0.00,Rainwise IP-100,2013-05-19 13:36:00,
2013-05-19 09:41:00,62.5,47.5,30.41,SW,225,3.0,11.0,58,0.00,,,0.00,Rainwise IP-100,2013-05-19 13:41:00,
2013-05-19 09:46:00,62.8,47.5,30.40,West,270,6.1,8.6,57,0.00,,,0.00,Rainwise IP-100,2013-05-19 13:46:00,
2013-05-19 09:51:00,63.1,47.5,30.40,West,270,2.6,8.2,57,0.00,,,0.00,Rainwise IP-100,2013-05-19 13:51:00,
2013-05-19 09:56:00,63.1,47.5,30.40,NNE,22,3.7,10.7,57,0.00,,,0.00,Rainwise IP-100,2013-05-19 13:56:00,
2013-05-19 10:01:00,63.3,48.0,30.40,West,270,8.2,10.0,57,0.00,,,0.00,Rainwise IP-100,2013-05-19 14:01:00,
2013-05-19 10:06:00,63.3,47.5,30.40,WNW,292,4.7,13.3,56,0.00,,,0.00,Rainwise IP-100,2013-05-19 14:06:00,
2013-05-19 10:11:00,63.3,47.5,30.41,NW,315,4.0,12.1,56,0.00,,,0.00,Rainwise IP-100,2013-05-19 14:11:00,
2013-05-19 10:16:00,63.3,47.5,30.41,WNW,292,8.4,12.6,56,0.00,,,0.00,Rainwise IP-100,2013-05-19 14:16:00,
2013-05-19 10:21:00,63.3,47.5,30.41,WNW,292,5.6,14.2,56,0.00,,,0.00,Rainwise IP-100,2013-05-19 14:21:00,
2013-05-19 10:26:00,63.6,47.5,30.41,WSW,247,5.6,12.1,56,0.00,,,0.00,Rainwise IP-100,2013-05-19 14:26:00,
2013-05-19 10:31:00,63.9,48.0,30.41,WSW,247,5.8,12.6,56,0.00,,,0.00,Rainwise IP-100,2013-05-19 14:31:00,
2013-05-19 10:36:00,63.7,47.5,30.41,WNW,292,3.3,13.8,56,0.00,,,0.00,Rainwise IP-100,2013-05-19 14:36:00,
2013-05-19 10:41:00,63.9,48.0,30.41,SSW,202,3.3,10.3,56,0.00,,,0.00,Rainwise IP-100,2013-05-19 14:41:00,
2013-05-19 10:46:00,64.4,48.0,30.41,WNW,292,1.6,10.5,56,0.00,,,0.00,Rainwise IP-100,2013-05-19 14:46:00,
2013-05-19 10:51:00,64.7,48.0,30.41,West,270,1.2,10.0,55,0.00,,,0.00,Rainwise IP-100,2013-05-19 14:51:00,
2013-05-19 10:56:00,64.8,48.0,30.41,WSW,247,4.0,11.7,55,0.00,,,0.00,Rainwise IP-100,2013-05-19 14:56:00,
2013-05-19 11:01:00,64.7,48.0,30.40,West,270,7.0,11.9,55,0.00,,,0.00,Rainwise IP-100,2013-05-19 15:01:00,
2013-05-19 11:06:00,64.6,48.0,30.40,WSW,247,3.5,11.7,55,0.00,,,0.00,Rainwise IP-100,2013-05-19 15:06:00,
2013-05-19 11:11:00,64.5,48.0,30.40,West,270,3.0,13.8,55,0.00,,,0.00,Rainwise IP-100,2013-05-19 15:11:00,
2013-05-19 11:16:00,64.2,48.0,30.41,West,270,4.2,16.1,56,0.00,,,0.00,Rainwise IP-100,2013-05-19 15:16:00,
2013-05-19 11:21:00,64.3,49.0,30.41,WNW,292,5.6,10.5,57,0.00,,,0.00,Rainwise IP-100,2013-05-19 15:21:00,
2013-05-19 11:26:00,65.0,49.0,30.40,WSW,247,4.0,12.4,57,0.00,,,0.00,Rainwise IP-100,2013-05-19 15:26:00,
2013-05-19 11:31:00,65.3,50.0,30.41,WNW,292,3.5,9.6,57,0.00,,,0.00,Rainwise IP-100,2013-05-19 15:31:00,
2013-05-19 11:36:00,65.4,49.0,30.41,WSW,247,3.7,13.5,56,0.00,,,0.00,Rainwise IP-100,2013-05-19 15:36:00,
2013-05-19 11:41:00,65.3,49.0,30.40,WSW,247,4.7,11.4,56,0.00,,,0.00,Rainwise IP-100,2013-05-19 15:41:00,
2013-05-19 11:46:00,65.0,48.0,30.40,WNW,292,8.9,13.1,55,0.00,,,0.00,Rainwise IP-100,2013-05-19 15:46:00,
2013-05-19 11:51:00,64.9,48.0,30.40,SSW,202,1.6,17.5,55,0.00,,,0.00,Rainwise IP-100,2013-05-19 15:51:00,
2013-05-19 11:56:00,65.2,48.0,30.40,WNW,292,11.9,15.2,55,0.00,,,0.00,Rainwise IP-100,2013-05-19 15:56:00,
2013-05-19 12:01:00,65.2,48.0,30.40,SSW,202,9.6,13.8,55,0.00,,,0.00,Rainwise IP-100,2013-05-19 16:01:00,
2013-05-19 12:06:00,65.4,48.0,30.40,WSW,247,9.1,12.8,54,0.00,,,0.00,Rainwise IP-100,2013-05-19 16:06:00,
2013-05-19 12:11:00,65.5,47.5,30.39,WSW,247,5.8,12.4,53,0.00,,,0.00,Rainwise IP-100,2013-05-19 16:11:00,
2013-05-19 12:16:00,65.4,47.5,30.39,WNW,292,8.9,15.9,53,0.00,,,0.00,Rainwise IP-100,2013-05-19 16:16:00,
2013-05-19 12:21:00,65.4,47.5,30.39,West,270,7.2,12.8,52,0.00,,,0.00,Rainwise IP-100,2013-05-19 16:21:00,
2013-05-19 12:26:00,65.5,47.5,30.40,SSW,202,1.9,14.2,53,0.00,,,0.00,Rainwise IP-100,2013-05-19 16:26:00,
2013-05-19 12:31:00,66.0,48.0,30.39,WSW,247,2.8,11.9,53,0.00,,,0.00,Rainwise IP-100,2013-05-19 16:31:00,
2013-05-19 12:36:00,66.1,47.5,30.39,WNW,292,10.7,13.5,52,0.00,,,0.00,Rainwise IP-100,2013-05-19 16:36:00,
2013-05-19 12:41:00,66.1,47.5,30.39,WSW,247,2.8,14.9,52,0.00,,,0.00,Rainwise IP-100,2013-05-19 16:41:00,
2013-05-19 12:46:00,66.1,47.5,30.39,WNW,292,9.8,13.1,52,0.00,,,0.00,Rainwise IP-100,2013-05-19 16:46:00,
2013-05-19 12:51:00,66.1,47.5,30.39,SSW,202,4.0,15.2,52,0.00,,,0.00,Rainwise IP-100,2013-05-19 16:51:00,
2013-05-19 12:56:00,66.1,47.5,30.39,WNW,292,7.5,11.9,52,0.00,,,0.00,Rainwise IP-100,2013-05-19 16:56:00,
2013-05-19 13:01:00,65.8,47.5,30.39,WNW,292,10.3,15.2,52,0.00,,,0.00,Rainwise IP-100,2013-05-19 17:01:00,
2013-05-19 13:06:00,65.8,47.5,30.39,NNW,337,2.6,15.2,52,0.00,,,0.00,Rainwise IP-100,2013-05-19 17:06:00,
2013-05-19 13:11:00,66.1,47.5,30.38,SSW,202,2.1,16.8,52,0.00,,,0.00,Rainwise IP-100,2013-05-19 17:11:00,
2013-05-19 13:16:00,66.1,47.5,30.38,WNW,292,7.7,14.2,51,0.00,,,0.00,Rainwise IP-100,2013-05-19 17:16:00,
2013-05-19 13:21:00,66.3,47.5,30.37,WSW,247,8.9,10.5,51,0.00,,,0.00,Rainwise IP-100,2013-05-19 17:21:00,
2013-05-19 13:26:00,66.6,48.0,30.38,WSW,247,6.1,11.7,51,0.00,,,0.00,Rainwise IP-100,2013-05-19 17:26:00,
2013-05-19 13:31:00,66.7,47.5,30.38,WNW,292,1.6,13.5,50,0.00,,,0.00,Rainwise IP-100,2013-05-19 17:31:00,
2013-05-19 13:36:00,66.7,47.5,30.38,WNW,292,5.1,12.6,50,0.00,,,0.00,Rainwise IP-100,2013-05-19 17:36:00,
2013-05-19 13:41:00,66.7,47.5,30.37,WNW,292,7.5,9.8,50,0.00,,,0.00,Rainwise IP-100,2013-05-19 17:41:00,
2013-05-19 13:46:00,67.1,48.0,30.37,SSW,202,7.0,10.5,50,0.00,,,0.00,Rainwise IP-100,2013-05-19 17:46:00,
2013-05-19 13:51:00,67.0,47.5,30.36,WNW,292,4.2,10.7,49,0.00,,,0.00,Rainwise IP-100,2013-05-19 17:51:00,
2013-05-19 13:56:00,67.0,47.5,30.37,WSW,247,3.5,12.8,49,0.00,,,0.00,Rainwise IP-100,2013-05-19 17:56:00,
2013-05-19 14:01:00,67.0,47.5,30.36,WNW,292,7.2,13.3,49,0.00,,,0.00,Rainwise IP-100,2013-05-19 18:01:00,
2013-05-19 14:06:00,66.9,47.5,30.36,SW,225,8.9,9.6,49,0.00,,,0.00,Rainwise IP-100,2013-05-19 18:06:00,
2013-05-19 14:11:00,67.0,47.5,30.36,WNW,292,4.9,13.3,49,0.00,,,0.00,Rainwise IP-100,2013-05-19 18:11:00,
2013-05-19 14:16:00,66.9,47.5,30.37,WNW,292,6.3,12.8,49,0.00,,,0.00,Rainwise IP-100,2013-05-19 18:16:00,
2013-05-19 14:21:00,67.1,47.5,30.36,WSW,247,7.0,10.0,49,0.00,,,0.00,Rainwise IP-100,2013-05-19 18:21:00,
2013-05-19 14:26:00,67.1,48.0,30.36,WSW,247,10.0,14.0,50,0.00,,,0.00,Rainwise IP-100,2013-05-19 18:26:00,
2013-05-19 14:31:00,66.6,48.0,30.36,WSW,247,5.4,11.9,51,0.00,,,0.00,Rainwise IP-100,2013-05-19 18:31:00,
2013-05-19 14:36:00,66.2,48.0,30.36,WSW,247,2.6,12.1,52,0.00,,,0.00,Rainwise IP-100,2013-05-19 18:36:00,
2013-05-19 14:41:00,66.0,47.5,30.36,WNW,292,3.3,13.1,52,0.00,,,0.00,Rainwise IP-100,2013-05-19 18:41:00,
2013-05-19 14:46:00,65.8,47.5,30.36,West,270,5.8,14.0,52,0.00,,,0.00,Rainwise IP-100,2013-05-19 18:46:00,
2013-05-19 14:51:00,65.6,47.5,30.36,WSW,247,4.7,14.9,52,0.00,,,0.00,Rainwise IP-100,2013-05-19 18:51:00,
2013-05-19 14:56:00,65.9,47.5,30.36,WSW,247,10.0,13.1,52,0.00,,,0.00,Rainwise IP-100,2013-05-19 18:56:00,
2013-05-19 15:01:00,65.9,47.5,30.36,WNW,292,7.0,15.2,52,0.00,,,0.00,Rainwise IP-100,2013-05-19 19:01:00,
2013-05-19 15:06:00,65.6,47.5,30.36,NNW,337,6.1,15.4,52,0.00,,,0.00,Rainwise IP-100,2013-05-19 19:06:00,
2013-05-19 15:11:00,65.8,47.5,30.36,West,270,5.4,15.2,51,0.00,,,0.00,Rainwise IP-100,2013-05-19 19:11:00,
2013-05-19 15:16:00,65.9,47.5,30.36,WNW,292,0.0,11.4,51,0.00,,,0.00,Rainwise IP-100,2013-05-19 19:16:00,
2013-05-19 15:21:00,66.3,47.5,30.35,West,270,10.7,13.1,51,0.00,,,0.00,Rainwise IP-100,2013-05-19 19:21:00,
2013-05-19 15:26:00,66.4,47.5,30.35,WSW,247,8.9,12.6,51,0.00,,,0.00,Rainwise IP-100,2013-05-19 19:26:00,
2013-05-19 15:31:00,66.5,48.0,30.35,SW,225,7.5,11.0,52,0.00,,,0.00,Rainwise IP-100,2013-05-19 19:31:00,
2013-05-19 15:36:00,66.6,48.0,30.36,West,270,7.7,10.7,51,0.00,,,0.00,Rainwise IP-100,2013-05-19 19:36:00,
2013-05-19 15:41:00,66.1,47.5,30.36,SSE,157,0.0,10.3,51,0.00,,,0.00,Rainwise IP-100,2013-05-19 19:41:00,
2013-05-19 15:46:00,66.1,47.5,30.36,SSW,202,8.6,13.8,52,0.00,,,0.00,Rainwise IP-100,2013-05-19 19:46:00,
2013-05-19 15:51:00,66.8,48.0,30.36,WNW,292,1.4,10.0,52,0.00,,,0.00,Rainwise IP-100,2013-05-19 19:51:00,
2013-05-19 15:56:00,67.3,49.0,30.36,ESE,112,0.0,8.4,51,0.00,,,0.00,Rainwise IP-100,2013-05-19 19:56:00,
2013-05-19 16:01:00,67.0,49.0,30.35,SSE,157,3.0,7.5,52,0.00,,,0.00,Rainwise IP-100,2013-05-19 20:01:00,
2013-05-19 16:06:00,66.7,48.0,30.36,SSW,202,2.8,7.7,52,0.00,,,0.00,Rainwise IP-100,2013-05-19 20:06:00,
2013-05-19 16:11:00,66.7,48.0,30.35,South,180,5.8,8.9,52,0.00,,,0.00,Rainwise IP-100,2013-05-19 20:11:00,
2013-05-19 16:16:00,66.3,48.0,30.36,SSE,157,3.7,7.9,53,0.00,,,0.00,Rainwise IP-100,2013-05-19 20:16:00,
2013-05-19 16:21:00,66.4,48.0,30.35,SSE,157,4.4,8.9,53,0.00,,,0.00,Rainwise IP-100,2013-05-19 20:21:00,
2013-05-19 16:26:00,66.3,48.0,30.35,WNW,292,7.5,10.5,53,0.00,,,0.00,Rainwise IP-100,2013-05-19 20:26:00,
2013-05-19 16:31:00,65.8,49.0,30.35,SSW,202,4.4,10.5,55,0.00,,,0.00,Rainwise IP-100,2013-05-19 20:31:00,
2013-05-19 16:36:00,65.6,49.0,30.35,ESE,112,2.6,7.0,56,0.00,,,0.00,Rainwise IP-100,2013-05-19 20:36:00,
2013-05-19 16:41:00,65.8,49.0,30.35,SSE,157,4.4,11.0,55,0.00,,,0.00,Rainwise IP-100,2013-05-19 20:41:00,
2013-05-19 16:46:00,65.6,49.0,30.36,SE,135,2.1,8.2,55,0.00,,,0.00,Rainwise IP-100,2013-05-19 20:46:00,
2013-05-19 16:51:00,65.0,49.0,30.35,South,180,1.6,10.3,56,0.00,,,0.00,Rainwise IP-100,2013-05-19 20:51:00,
2013-05-19 16:56:00,64.6,49.0,30.35,SSW,202,3.7,9.8,57,0.00,,,0.00,Rainwise IP-100,2013-05-19 20:56:00,
2013-05-19 17:01:00,64.2,49.0,30.35,SSW,202,2.6,8.2,58,0.00,,,0.00,Rainwise IP-100,2013-05-19 21:01:00,
2013-05-19 17:06:00,63.9,49.0,30.35,SSE,157,3.0,8.6,59,0.00,,,0.00,Rainwise IP-100,2013-05-19 21:06:00,
2013-05-19 17:11:00,63.6,49.0,30.35,SSW,202,0.0,9.3,59,0.00,,,0.00,Rainwise IP-100,2013-05-19 21:11:00,
2013-05-19 17:16:00,63.4,50.0,30.35,SSW,202,2.1,7.7,61,0.00,,,0.00,Rainwise IP-100,2013-05-19 21:16:00,
2013-05-19 17:21:00,63.4,50.0,30.35,SSE,157,4.4,4.7,61,0.00,,,0.00,Rainwise IP-100,2013-05-19 21:21:00,
2013-05-19 17:26:00,63.3,50.5,30.35,ESE,112,1.4,6.8,62,0.00,,,0.00,Rainwise IP-100,2013-05-19 21:26:00,
2013-05-19 17:31:00,63.3,50.5,30.35,SSE,157,4.0,4.2,62,0.00,,,0.00,Rainwise IP-100,2013-05-19 21:31:00,
2013-05-19 17:36:00,63.1,50.0,30.35,WNW,292,1.4,8.2,62,0.00,,,0.00,Rainwise IP-100,2013-05-19 21:36:00,
2013-05-19 17:41:00,62.7,49.0,30.36,SSW,202,2.1,7.2,62,0.00,,,0.00,Rainwise IP-100,2013-05-19 21:41:00,
2013-05-19 17:46:00,62.5,50.0,30.35,SSE,157,5.1,7.5,63,0.00,,,0.00,Rainwise IP-100,2013-05-19 21:46:00,
2013-05-19 17:51:00,62.2,49.0,30.35,South,180,2.8,7.2,63,0.00,,,0.00,Rainwise IP-100,2013-05-19 21:51:00,
2013-05-19 17:56:00,61.9,50.0,30.36,South,180,3.3,7.0,64,0.00,,,0.00,Rainwise IP-100,2013-05-19 21:56:00,
2013-05-19 18:01:00,61.7,50.0,30.36,SSE,157,4.2,5.6,65,0.00,,,0.00,Rainwise IP-100,2013-05-19 22:01:00,
2013-05-19 18:06:00,61.6,50.0,30.36,ESE,112,3.7,6.1,66,0.00,,,0.00,Rainwise IP-100,2013-05-19 22:06:00,
2013-05-19 18:11:00,61.2,50.0,30.36,ESE,112,0.0,6.5,67,0.00,,,0.00,Rainwise IP-100,2013-05-19 22:11:00,
2013-05-19 18:16:00,60.9,50.5,30.36,WSW,247,2.6,7.0,68,0.00,,,0.00,Rainwise IP-100,2013-05-19 22:16:00,
2013-05-19 18:21:00,60.7,50.5,30.35,SSE,157,4.4,7.9,69,0.00,,,0.00,Rainwise IP-100,2013-05-19 22:21:00,
2013-05-19 18:26:00,60.4,50.5,30.35,SSW,202,2.6,8.9,70,0.00,,,0.00,Rainwise IP-100,2013-05-19 22:26:00,
2013-05-19 18:31:00,60.2,50.0,30.36,SSW,202,4.2,7.0,70,0.00,,,0.00,Rainwise IP-100,2013-05-19 22:31:00,
2013-05-19 18:36:00,60.1,50.0,30.35,SSE,157,5.8,7.0,70,0.00,,,0.00,Rainwise IP-100,2013-05-19 22:36:00,
2013-05-19 18:41:00,59.9,50.0,30.36,South,180,1.9,7.0,70,0.00,,,0.00,Rainwise IP-100,2013-05-19 22:41:00,
2013-05-19 18:46:00,59.7,50.0,30.36,SSE,157,5.8,6.8,70,0.00,,,0.00,Rainwise IP-100,2013-05-19 22:46:00,
2013-05-19 18:51:00,59.5,50.0,30.35,ESE,112,0.0,10.3,71,0.00,,,0.00,Rainwise IP-100,2013-05-19 22:51:00,
2013-05-19 18:56:00,59.2,50.0,30.36,SSE,157,3.3,7.2,71,0.00,,,0.00,Rainwise IP-100,2013-05-19 22:56:00,
2013-05-19 19:01:00,59.1,50.0,30.35,SSE,157,1.6,8.2,72,0.00,,,0.00,Rainwise IP-100,2013-05-19 23:01:00,
2013-05-19 19:06:00,58.9,50.5,30.36,WSW,247,0.0,6.8,74,0.00,,,0.00,Rainwise IP-100,2013-05-19 23:06:00,
2013-05-19 19:11:00,58.8,51.0,30.36,WNW,292,2.8,3.7,75,0.00,,,0.00,Rainwise IP-100,2013-05-19 23:11:00,
2013-05-19 19:16:00,58.6,51.0,30.36,WNW,292,3.7,6.3,76,0.00,,,0.00,Rainwise IP-100,2013-05-19 23:16:00,
2013-05-19 19:21:00,58.3,51.0,30.36,SSW,202,7.7,7.9,77,0.00,,,0.00,Rainwise IP-100,2013-05-19 23:21:00,
2013-05-19 19:26:00,57.9,51.0,30.35,WSW,247,5.4,8.9,78,0.00,,,0.00,Rainwise IP-100,2013-05-19 23:26:00,
2013-05-19 19:31:00,57.5,51.0,30.35,SSW,202,0.0,9.6,79,0.00,,,0.00,Rainwise IP-100,2013-05-19 23:31:00,
2013-05-19 19:36:00,57.1,51.0,30.35,SW,225,3.5,4.4,81,0.00,,,0.00,Rainwise IP-100,2013-05-19 23:36:00,
2013-05-19 19:41:00,56.8,52.0,30.36,SSE,157,0.0,6.1,82,0.00,,,0.00,Rainwise IP-100,2013-05-19 23:41:00,
2013-05-19 19:46:00,56.4,51.0,30.35,SSW,202,3.0,7.7,83,0.00,,,0.00,Rainwise IP-100,2013-05-19 23:46:00,
2013-05-19 19:51:00,56.2,51.0,30.36,SSE,157,0.0,4.0,84,0.00,,,0.00,Rainwise IP-100,2013-05-19 23:51:00,
2013-05-19 19:56:00,55.9,52.0,30.35,SE,135,0.0,5.4,86,0.00,,,0.00,Rainwise IP-100,2013-05-19 23:56:00,
2013-05-19 20:01:00,55.6,52.0,30.35,SSE,157,2.1,4.9,87,0.00,,,0.01,Rainwise IP-100,2013-05-20 00:01:00,
2013-05-19 20:06:00,55.5,53.0,30.36,SSE,157,0.0,5.1,88,0.06,,,0.01,Rainwise IP-100,2013-05-20 00:06:00,
2013-05-19 20:11:00,55.4,52.0,30.35,SW,225,1.9,4.7,89,0.06,,,0.01,Rainwise IP-100,2013-05-20 00:11:00,
2013-05-19 20:16:00,55.3,52.0,30.35,SSE,157,0.0,3.7,89,0.00,,,0.01,Rainwise IP-100,2013-05-20 00:16:00,
2013-05-19 20:21:00,55.2,53.0,30.35,SSE,157,0.0,4.2,90,0.00,,,0.01,Rainwise IP-100,2013-05-20 00:21:00,
2013-05-19 20:26:00,55.2,53.0,30.35,SSW,202,1.6,3.7,91,0.00,,,0.01,Rainwise IP-100,2013-05-20 00:26:00,
2013-05-19 20:31:00,55.2,53.0,30.35,SW,225,1.4,3.0,91,0.00,,,0.01,Rainwise IP-100,2013-05-20 00:31:00,
2013-05-19 20:36:00,55.1,53.0,30.36,SE,135,0.0,2.8,92,0.06,,,0.02,Rainwise IP-100,2013-05-20 00:36:00,
2013-05-19 20:41:00,55.1,53.0,30.36,SE,135,0.0,1.2,92,0.06,,,0.02,Rainwise IP-100,2013-05-20 00:41:00,
2013-05-19 20:46:00,55.1,53.5,30.36,SSW,202,0.0,2.3,93,0.00,,,0.02,Rainwise IP-100,2013-05-20 00:46:00,
2013-05-19 20:51:00,55.1,53.5,30.36,ESE,112,1.2,4.0,93,0.00,,,0.03,Rainwise IP-100,2013-05-20 00:51:00,
2013-05-19 20:56:00,55.0,53.5,30.35,SSW,202,0.0,5.1,93,0.06,,,0.03,Rainwise IP-100,2013-05-20 00:56:00,
2013-05-19 21:01:00,55.0,53.5,30.36,South,180,0.0,3.3,93,0.12,,,0.04,Rainwise IP-100,2013-05-20 01:01:00,
2013-05-19 21:06:00,54.9,53.5,30.36,SSE,157,1.2,2.6,94,0.06,,,0.04,Rainwise IP-100,2013-05-20 01:06:00,
2013-05-19 21:11:00,54.8,53.5,30.36,SSE,157,1.9,2.6,94,0.00,,,0.04,Rainwise IP-100,2013-05-20 01:11:00,
2013-05-19 21:16:00,54.8,53.5,30.35,SSE,157,0.0,2.1,94,0.00,,,0.04,Rainwise IP-100,2013-05-20 01:16:00,
2013-05-19 21:21:00,54.9,53.5,30.36,ESE,112,0.0,2.3,94,0.06,,,0.05,Rainwise IP-100,2013-05-20 01:21:00,
2013-05-19 21:26:00,55.0,54.0,30.36,ESE,112,1.6,2.6,95,0.06,,,0.05,Rainwise IP-100,2013-05-20 01:26:00,
2013-05-19 21:31:00,55.0,54.0,30.35,SE,135,1.2,5.4,95,0.00,,,0.05,Rainwise IP-100,2013-05-20 01:31:00,
2013-05-19 21:36:00,54.9,54.0,30.35,ESE,112,0.0,3.3,95,0.06,,,0.06,Rainwise IP-100,2013-05-20 01:36:00,
2013-05-19 21:41:00,54.9,54.0,30.35,SSE,157,2.1,4.2,95,0.06,,,0.06,Rainwise IP-100,2013-05-20 01:41:00,
2013-05-19 21:46:00,54.8,54.0,30.34,SSW,202,2.8,4.2,95,0.06,,,0.07,Rainwise IP-100,2013-05-20 01:46:00,
2013-05-19 21:51:00,54.8,54.0,30.35,SSE,157,1.9,3.7,96,0.06,,,0.07,Rainwise IP-100,2013-05-20 01:51:00,
2013-05-19 21:56:00,54.8,54.0,30.34,SSE,157,1.2,5.6,96,0.00,,,0.07,Rainwise IP-100,2013-05-20 01:56:00,
2013-05-19 22:01:00,54.8,54.0,30.35,SSE,157,4.2,5.6,96,0.00,,,0.07,Rainwise IP-100,2013-05-20 02:01:00,
2013-05-19 22:06:00,54.8,54.0,30.34,SE,135,3.7,4.9,96,0.06,,,0.08,Rainwise IP-100,2013-05-20 02:06:00,
2013-05-19 22:11:00,54.8,54.0,30.34,ESE,112,5.1,5.4,96,0.06,,,0.08,Rainwise IP-100,2013-05-20 02:11:00,
2013-05-19 22:16:00,54.7,53.5,30.34,SSE,157,1.2,5.6,96,0.00,,,0.08,Rainwise IP-100,2013-05-20 02:16:00,
2013-05-19 22:21:00,54.8,54.5,30.34,SSE,157,2.8,6.8,97,0.06,,,0.09,Rainwise IP-100,2013-05-20 02:21:00,
2013-05-19 22:26:00,54.8,54.5,30.34,SSE,157,2.3,8.2,97,0.06,,,0.09,Rainwise IP-100,2013-05-20 02:26:00,
2013-05-19 22:31:00,54.8,54.5,30.33,ESE,112,4.7,7.7,97,0.00,,,0.09,Rainwise IP-100,2013-05-20 02:31:00,
2013-05-19 22:36:00,54.9,54.5,30.33,ESE,112,3.0,6.1,97,0.00,,,0.09,Rainwise IP-100,2013-05-20 02:36:00,
2013-05-19 22:41:00,55.0,54.5,30.33,SSE,157,3.7,5.6,97,0.00,,,0.09,Rainwise IP-100,2013-05-20 02:41:00,
2013-05-19 22:46:00,55.0,54.5,30.32,South,180,2.3,5.4,97,0.00,,,0.09,Rainwise IP-100,2013-05-20 02:46:00,
2013-05-19 22:51:00,55.1,54.5,30.33,SE,135,4.7,4.7,97,0.00,,,0.09,Rainwise IP-100,2013-05-20 02:51:00,
2013-05-19 22:56:00,55.2,54.5,30.32,SSE,157,3.0,6.1,97,0.00,,,0.09,Rainwise IP-100,2013-05-20 02:56:00,
2013-05-19 23:01:00,55.3,54.5,30.32,ESE,112,1.2,4.0,98,0.00,,,0.09,Rainwise IP-100,2013-05-20 03:01:00,
2013-05-19 23:06:00,55.4,54.5,30.32,East,90,2.6,4.4,98,0.00,,,0.09,Rainwise IP-100,2013-05-20 03:06:00,
2013-05-19 23:11:00,55.5,55.0,30.32,SE,135,3.0,6.3,98,0.00,,,0.09,Rainwise IP-100,2013-05-20 03:11:00,
2013-05-19 23:16:00,55.6,55.0,30.32,SE,135,3.0,6.5,98,0.00,,,0.09,Rainwise IP-100,2013-05-20 03:16:00,
2013-05-19 23:21:00,55.8,55.0,30.32,North,360,1.2,6.8,98,0.00,,,0.09,Rainwise IP-100,2013-05-20 03:21:00,
2013-05-19 23:26:00,55.9,55.0,30.31,SE,135,8.2,8.2,98,0.00,,,0.09,Rainwise IP-100,2013-05-20 03:26:00,
2013-05-19 23:31:00,55.9,55.0,30.31,SE,135,7.7,9.3,98,0.00,,,0.09,Rainwise IP-100,2013-05-20 03:31:00,
2013-05-19 23:36:00,55.9,55.0,30.31,SSE,157,2.8,7.7,98,0.00,,,0.09,Rainwise IP-100,2013-05-20 03:36:00,
2013-05-19 23:41:00,56.0,55.0,30.31,SE,135,3.5,7.5,98,0.00,,,0.09,Rainwise IP-100,2013-05-20 03:41:00,
2013-05-19 23:46:00,56.1,55.0,30.31,SE,135,3.0,6.5,98,0.06,,,0.10,Rainwise IP-100,2013-05-20 03:46:00,
2013-05-19 23:51:00,56.1,55.0,30.30,SE,135,3.5,7.2,98,0.06,,,0.10,Rainwise IP-100,2013-05-20 03:51:00,
2013-05-19 23:56:00,56.1,55.0,30.31,North,360,2.8,6.1,98,0.00,,,0.10,Rainwise IP-100,2013-05-20 03:56:00,